| time (UTC) | temp C | wind direction | speed KPH | gust KPH | rain 1hr cm | rain 24hr cm | rain mn cm | humidity % | barometer mb |
| 20260510224503 | 31 | 80 | 4.8 | 14.5 | 0.00 | 0.00 | 0.00 | 60 | 1009.7 |
| 20260510223004 | 31 | 36 | 3.2 | 12.9 | 0.00 | 0.00 | 0.00 | 61 | 1009.4 |
| 20260510221507 | 30 | 216 | 4.8 | 17.7 | 0.00 | 0.00 | 0.00 | 62 | 1009.5 |
| 20260510220005 | 31 | 75 | 4.8 | 19.3 | 0.00 | 0.00 | 0.00 | 59 | 1009.7 |
| 20260510214503 | 31 | 45 | 8.0 | 17.7 | 0.00 | 0.00 | 0.00 | 58 | 1009.9 |
| 20260510213002 | 31 | 84 | 4.8 | 16.1 | 0.00 | 0.00 | 0.00 | 57 | 1010.2 |
| 20260510211505 | 32 | 66 | 8.0 | 16.1 | 0.00 | 0.00 | 0.00 | 57 | 1010.4 |
| 20260510210005 | 31 | 115 | 4.8 | 16.1 | 0.00 | 0.00 | 0.00 | 58 | 1010.5 |
| 20260510204503 | 31 | 86 | 4.8 | 16.1 | 0.00 | 0.00 | 0.00 | 59 | 1010.4 |
| 20260510203004 | 31 | 131 | 3.2 | 16.1 | 0.00 | 0.00 | 0.00 | 60 | 1010.5 |
| 20260510201502 | 31 | 77 | 4.8 | 16.1 | 0.00 | 0.00 | 0.00 | 62 | 1010.5 |
| 20260510200005 | 31 | 52 | 6.4 | 19.3 | 0.00 | 0.00 | 0.00 | 61 | 1010.6 |
| 20260510194503 | 30 | 52 | 8.0 | 19.3 | 0.00 | 0.00 | 0.00 | 60 | 1010.8 |
| 20260510193005 | 30 | 97 | 6.4 | 16.1 | 0.00 | 0.00 | 0.00 | 63 | 1010.9 |
| 20260510191504 | 30 | 57 | 4.8 | 17.7 | 0.00 | 0.00 | 0.00 | 64 | 1010.9 |
| 20260510190006 | 30 | 55 | 6.4 | 19.3 | 0.00 | 0.00 | 0.00 | 65 | 1011.1 |
| 20260510184502 | 30 | 248 | 3.2 | 17.7 | 0.00 | 0.00 | 0.00 | 64 | 1011.0 |
| 20260510183004 | 29 | 5 | 4.8 | 12.9 | 0.00 | 0.00 | 0.00 | 66 | 1011.2 |
| 20260510181504 | 29 | 119 | 4.8 | 16.1 | 0.00 | 0.00 | 0.00 | 67 | 1011.5 |
| 20260510180004 | 29 | 88 | 3.2 | 11.3 | 0.00 | 0.00 | 0.00 | 67 | 1011.7 |
| 20260510174505 | 28 | 102 | 6.4 | 14.5 | 0.00 | 0.00 | 0.00 | 68 | 1011.9 |
| 20260510173002 | 28 | 71 | 3.2 | 14.5 | 0.00 | 0.00 | 0.00 | 71 | 1012.3 |
| 20260510171503 | 28 | 63 | 4.8 | 12.9 | 0.00 | 0.00 | 0.00 | 72 | 1012.4 |
| 20260510170006 | 27 | 186 | 4.8 | 20.9 | 0.00 | 0.00 | 0.00 | 74 | 1012.6 |
| 20260510164502 | 27 | 97 | 6.4 | 17.7 | 0.00 | 0.00 | 0.00 | 72 | 1012.6 |
| 20260510163003 | 27 | 98 | 4.8 | 16.1 | 0.00 | 0.00 | 0.00 | 75 | 1012.6 |
| 20260510161505 | 27 | 101 | 6.4 | 16.1 | 0.00 | 0.00 | 0.00 | 74 | 1012.4 |
| 20260510160003 | 27 | 44 | 6.4 | 14.5 | 0.00 | 0.00 | 0.00 | 75 | 1012.4 |
| 20260510154502 | 27 | 152 | 6.4 | 16.1 | 0.00 | 0.00 | 0.00 | 73 | 1012.3 |
| 20260510153003 | 27 | 65 | 3.2 | 11.3 | 0.00 | 0.00 | 0.00 | 74 | 1012.3 |
| 20260510151503 | 26 | 65 | 3.2 | 9.7 | 0.00 | 0.00 | 0.00 | 75 | 1012.3 |
| 20260510150005 | 26 | 117 | 4.8 | 12.9 | 0.00 | 0.00 | 0.00 | 76 | 1012.3 |
| 20260510144508 | 26 | 126 | 1.6 | 9.7 | 0.00 | 0.00 | 0.00 | 78 | 1012.2 |
| 20260510143002 | 25 | 120 | 1.6 | 11.3 | 0.00 | 0.00 | 0.00 | 78 | 1011.9 |
| 20260510141502 | 25 | 121 | 1.6 | 8.0 | 0.00 | 0.00 | 0.00 | 79 | 1011.8 |
| 20260510140007 | 24 | 133 | 3.2 | 11.3 | 0.00 | 0.00 | 0.00 | 80 | 1011.7 |
| 20260510134502 | 23 | 74 | 3.2 | 8.0 | 0.00 | 0.00 | 0.00 | 83 | 1011.6 |
| 20260510133007 | 22 | 107 | 4.8 | 9.7 | 0.00 | 0.00 | 0.00 | 85 | 1011.3 |
| 20260510131502 | 22 | 35 | 3.2 | 9.7 | 0.00 | 0.00 | 0.00 | 87 | 1011.1 |
| 20260510130011 | 21 | 90 | 3.2 | 6.4 | 0.00 | 0.00 | 0.00 | 88 | 1010.8 |
| 20260510124501 | 21 | 63 | 0.0 | 6.4 | 0.00 | 0.00 | 0.00 | 91 | 1010.4 |
| 20260510123001 | 20 | 12 | 1.6 | 4.8 | 0.00 | 0.00 | 0.00 | 91 | 1010.3 |
| 20260510121502 | 20 | 240 | 1.6 | 4.8 | 0.00 | 0.00 | 0.00 | 92 | 1010.3 |
| 20260510120014 | 20 | 240 | 0.0 | 3.2 | 0.00 | 0.00 | 0.00 | 92 | 1009.9 |
| 20260510114505 | 20 | 240 | 0.0 | 3.2 | 0.00 | 0.00 | 0.00 | 91 | 1009.7 |
| 20260510113002 | 20 | 252 | 1.6 | 12.9 | 0.00 | 0.00 | 0.00 | 91 | 1009.8 |
| 20260510111502 | 20 | 224 | 0.0 | 4.8 | 0.00 | 0.00 | 0.00 | 92 | 1009.7 |
| 20260510110007 | 20 | 224 | 1.6 | 6.4 | 0.00 | 0.00 | 0.00 | 92 | 1009.6 |
| 20260510104504 | 20 | 222 | 0.0 | 4.8 | 0.00 | 0.08 | 0.00 | 91 | 1009.5 |
| 20260510103002 | 20 | 171 | 0.0 | 4.8 | 0.00 | 0.08 | 0.00 | 91 | 1009.2 |
| 20260510101501 | 20 | 171 | 0.0 | 3.2 | 0.00 | 0.08 | 0.00 | 91 | 1009.2 |
| 20260510100004 | 20 | 128 | 0.0 | 3.2 | 0.00 | 0.08 | 0.00 | 90 | 1009.1 |
| 20260510094501 | 20 | 128 | 0.0 | 6.4 | 0.00 | 0.08 | 0.00 | 90 | 1009.0 |
| 20260510093002 | 21 | 82 | 1.6 | 4.8 | 0.00 | 0.08 | 0.00 | 89 | 1009.0 |
| 20260510091502 | 21 | 67 | 0.0 | 6.4 | 0.00 | 0.08 | 0.00 | 88 | 1008.9 |
| 20260510090003 | 21 | 129 | 1.6 | 14.5 | 0.00 | 0.08 | 0.00 | 87 | 1009.0 |
| 20260510084501 | 21 | 114 | 0.0 | 4.8 | 0.00 | 0.08 | 0.00 | 86 | 1009.0 |
| 20260510083001 | 21 | 146 | 0.0 | 4.8 | 0.00 | 0.08 | 0.00 | 86 | 1009.2 |
| 20260510081502 | 21 | 83 | 3.2 | 9.7 | 0.00 | 0.08 | 0.00 | 86 | 1009.4 |
| 20260510080003 | 21 | 88 | 0.0 | 3.2 | 0.00 | 0.08 | 0.00 | 86 | 1009.4 |
| 20260510074501 | 21 | 88 | 0.0 | 3.2 | 0.00 | 0.08 | 0.00 | 85 | 1009.3 |
| 20260510073001 | 21 | 88 | 1.6 | 3.2 | 0.00 | 0.08 | 0.00 | 84 | 1009.4 |
| 20260510071502 | 21 | 49 | 0.0 | 4.8 | 0.00 | 0.08 | 0.00 | 83 | 1009.4 |
| 20260510070003 | 21 | 68 | 0.0 | 6.4 | 0.00 | 0.08 | 0.00 | 83 | 1009.4 |
| 20260510064505 | 21 | 66 | 0.0 | 4.8 | 0.00 | 0.08 | 0.00 | 82 | 1009.3 |
| 20260510063002 | 22 | 86 | 1.6 | 6.4 | 0.00 | 0.08 | 0.00 | 82 | 1009.3 |
| 20260510061503 | 22 | 126 | 1.6 | 4.8 | 0.00 | 0.08 | 0.00 | 82 | 1009.2 |
| 20260510060009 | 22 | 67 | 0.0 | 3.2 | 0.00 | 0.08 | 0.00 | 83 | 1009.2 |
| 20260510054504 | 22 | 62 | 1.6 | 4.8 | 0.00 | 0.08 | 0.00 | 84 | 1009.0 |
| 20260510053012 | 22 | 66 | 1.6 | 4.8 | 0.00 | 0.08 | 0.00 | 84 | 1009.0 |
| 20260510051507 | 22 | 63 | 1.6 | 4.8 | 0.00 | 0.08 | 0.00 | 84 | 1009.1 |
| 20260510050008 | 23 | 57 | 1.6 | 4.8 | 0.00 | 0.08 | 0.00 | 83 | 1009.2 |
| 20260510044509 | 23 | 62 | 1.6 | 4.8 | 0.00 | 0.08 | 0.08 | 82 | 1009.0 |
| 20260510043004 | 24 | 66 | 0.0 | 3.2 | 0.00 | 0.08 | 0.08 | 80 | 1009.1 |
| 20260510041510 | 24 | 66 | 0.0 | 3.2 | 0.00 | 0.08 | 0.08 | 79 | 1008.9 |
| 20260510040005 | 24 | 66 | 0.0 | 3.2 | 0.00 | 0.08 | 0.08 | 79 | 1008.9 |
| 20260510034503 | 24 | 80 | 0.0 | 3.2 | 0.00 | 0.08 | 0.08 | 79 | 1008.8 |
| 20260510033002 | 25 | 80 | 0.0 | 3.2 | 0.00 | 0.08 | 0.08 | 79 | 1008.6 |
| 20260510031504 | 25 | 105 | 0.0 | 6.4 | 0.00 | 0.08 | 0.08 | 79 | 1008.4 |
| 20260510030008 | 25 | 98 | 0.0 | 4.8 | 0.00 | 0.08 | 0.08 | 79 | 1008.3 |
| 20260510024504 | 25 | 67 | 0.0 | 4.8 | 0.00 | 0.08 | 0.08 | 79 | 1008.1 |
| 20260510023003 | 26 | 59 | 1.6 | 11.3 | 0.00 | 0.08 | 0.08 | 78 | 1007.9 |
| 20260510021511 | 26 | 111 | 1.6 | 6.4 | 0.00 | 0.08 | 0.08 | 76 | 1007.7 |
| 20260510020006 | 26 | 114 | 1.6 | 4.8 | 0.00 | 0.08 | 0.08 | 75 | 1007.5 |
| 20260510014503 | 26 | 114 | 0.0 | 4.8 | 0.00 | 0.08 | 0.08 | 74 | 1007.2 |
| 20260510013004 | 27 | 104 | 0.0 | 3.2 | 0.00 | 0.08 | 0.08 | 72 | 1007.1 |
| 20260510011503 | 27 | 145 | 1.6 | 4.8 | 0.00 | 0.08 | 0.08 | 71 | 1007.0 |
| 20260510010006 | 27 | 96 | 1.6 | 6.4 | 0.00 | 0.08 | 0.08 | 69 | 1006.9 |
| 20260510004503 | 28 | 93 | 0.0 | 6.4 | 0.00 | 0.08 | 0.08 | 67 | 1006.8 |
| 20260510003004 | 28 | 91 | 1.6 | 8.0 | 0.00 | 0.08 | 0.08 | 64 | 1006.7 |
| 20260510001503 | 29 | 86 | 1.6 | 12.9 | 0.00 | 0.08 | 0.08 | 63 | 1006.6 |
| 20260510000009 | 30 | 86 | 3.2 | 8.0 | 0.00 | 0.08 | 0.08 | 61 | 1006.5 |
| 20260509234510 | 30 | 113 | 1.6 | 11.3 | 0.00 | 0.08 | 0.08 | 60 | 1006.3 |
| 20260509233006 | 30 | 123 | 1.6 | 9.7 | 0.00 | 0.08 | 0.08 | 58 | 1006.1 |
| 20260509231502 | 30 | 52 | 3.2 | 12.9 | 0.00 | 0.08 | 0.08 | 54 | 1006.2 |
| 20260509230006 | 31 | 64 | 3.2 | 12.9 | 0.00 | 0.08 | 0.08 | 53 | 1006.2 |